Погода в Нджамене

Чад     12°07′38″N   15°04′40″E
темп.,
°C
ветер,
м/с
пор.,
м/с
влажн.,
%
обл.,
%
осадки,
мм/ч
давл.,
гПа
погр.,
м
10 августа, ср
ср1001:00+28сз336686 0.0 101052
04:00+27зюз34645 0.0 100953
07:00+26зюз487359 0.0 1010251
10:00+31зюз335581 0.0 1011843
13:00+33з2246100 0.0 10081705
16:00+34зюз2242100 0.0 10061728
19:00+31сз33545 0.1 100643
22:00+28вюв236778 0.6 100941
11 августа, чт
чт1101:00+26ю4780100 0.6 1009270
04:00+25ююз5887100 0.4 1009254
07:00+24ююз478521 0.4 1010302
10:00+28юз786888 0.0 1010748
13:00+30юз5662100 0.0 10091001
16:00+31юз565766 0.0 10081531
19:00+27юз610701 0.0 1008544
22:00+25зюз4780100 0.1 1010346
12 августа, пт
пт1201:00+24юз4881100 0.1 1010325
04:00+24ююз5884100 0.8 1009322
07:00+24ю368593 1.6 1011323
10:00+28ююз5665100 0.1 1011752
13:00+29ююз335775 0.1 10101085
16:00+30юз445539 0.0 10091149
19:00+27ююз346791 0.0 101093
22:00+26юз377499 0.0 1011191
13 августа, сб
сб1301:00+25юз597785 0.0 1010324
04:00+24юз4982100 1.1 1010317
07:00+24вюв4485100 2.5 1013183
10:00+22ссв41293100 21.8 1014622
13:00+22зюз5589100 33.7 1010160
16:00+25юз4680100 0.2 1007235
19:00+23ю348962 0.2 100985
22:00+22ююз359012 0.0 1011127
14 августа, вс
вс1401:00+22юз4992100 0.0 1009247
04:00+21зюз2893100 0.3 1009298
07:00+22юз5993100 1.0 1010284
10:00+22зсз2394100 2.3 1013203
13:00+23з6888100 2.6 1009411
16:00+23зюз4787100 0.0 1007408
19:00+23зюз1192100 0.0 100911
22:00+22зюз1293100 0.0 101115